Weather History for Meadville, PA

Change the Weather History Date:

Friday, March 29, 2013

  Actual Average Record
Temperature  
Mean Temperature 40 °F -  
Max Temperature 46 °F 52 °F 79 °F (1989)
Min Temperature 34 °F 30 °F 4 °F (1982)
Degree Days  
Heating Degree Days 26    
Moisture  
Dew Point 25 °F    
Average Humidity 61    
Maximum Humidity 79    
Minimum Humidity 42    
Precipitation  
Precipitation 0.00 in - - ()
Sea Level Pressure  
Sea Level Pressure 30.23 in    
Wind  
Wind Speed 4 mph (WSW)    
Max Wind Speed 10 mph    
Max Gust Speed 16 mph    
Visibility 10 miles    
Events      
Averages and records for this station are not official NWS values.
T = Trace of Precipitation, MM = Missing Value Source: NWS Daily Summary

Daily Weather History Graph

Daily Weather History Graph

Search for Another Location

Airport:

Trip Planner

Search our weather history database for the weather conditions in past years. The results will help you decide how hot, cold, wet, or windy it might be!

Date:

Astronomy

Mar. 29, 2013 Rise Set
Actual Time 7:08 AM EDT 7:43 PM EDT
Civil Twilight 6:40 AM EDT 8:11 PM EDT
Nautical Twilight 6:07 AM EDT 8:44 PM EDT
Astronomical Twilight 5:33 AM EDT 9:18 PM EDT
Moon 10:44 PM EDT (3/29) 8:13 AM EDT (3/29)
Length of Visible Light 13h 30m
Length of Day
12h 34m
Waning Gibbous, 93% of the Moon is Illuminated
Mar 29
Waning Gibbous
Apr 3
Last Quarter
Apr 10
New
Apr 18
First Quarter
Apr 25
Full

Hourly Weather History & Observations

Time (EDT) Temp. Windchill Dew Point Humidity Pressure Visibility Wind Dir Wind Speed Gust Speed Precip Events Conditions
12:53 AM 35.1 °F 32.2 °F 28.0 °F 76% 30.26 in 10.0 mi SW 3.5 mph - N/A   Overcast
1:53 AM 34.0 °F 31.0 °F 28.0 °F 79% 30.26 in 10.0 mi SW 3.5 mph - N/A   Overcast
2:53 AM 34.0 °F 31.0 °F 28.0 °F 79% 30.25 in 10.0 mi SW 3.5 mph - N/A   Overcast
3:53 AM 35.1 °F 32.2 °F 28.0 °F 76% 30.24 in 10.0 mi SW 3.5 mph - N/A   Overcast
4:53 AM 35.1 °F - 27.0 °F 72% 30.24 in 10.0 mi Calm Calm - N/A   Overcast
5:53 AM 34.0 °F - 28.0 °F 79% 30.24 in 10.0 mi Calm Calm - N/A   Overcast
6:53 AM 34.0 °F - 28.0 °F 79% 30.24 in 9.0 mi Calm Calm - N/A   Overcast
7:53 AM 34.0 °F 31.0 °F 28.0 °F 79% 30.25 in 8.0 mi South 3.5 mph - N/A   Overcast
8:53 AM 35.1 °F 31.0 °F 28.0 °F 76% 30.25 in 8.0 mi SSW 4.6 mph - N/A   Overcast
9:53 AM 37.0 °F 32.4 °F 28.9 °F 73% 30.25 in 7.0 mi WSW 5.8 mph - N/A   Overcast
10:53 AM 39.0 °F 34.0 °F 28.9 °F 67% 30.25 in 9.0 mi WSW 6.9 mph - N/A   Overcast
11:53 AM 43.0 °F 37.7 °F 25.0 °F 49% 30.24 in 10.0 mi NW 9.2 mph - N/A   Overcast
12:53 PM 45.0 °F 39.7 °F 23.0 °F 42% 30.23 in 10.0 mi West 10.4 mph 16.1 mph N/A   Clear
1:53 PM 44.1 °F 40.8 °F 23.0 °F 43% 30.22 in 10.0 mi WNW 5.8 mph - N/A   Overcast
2:53 PM 45.0 °F 43.5 °F 24.1 °F 44% 30.20 in 10.0 mi Variable 3.5 mph - N/A   Overcast
3:53 PM 45.0 °F 40.1 °F 25.0 °F 46% 30.19 in 10.0 mi NNW 9.2 mph - N/A   Partly Cloudy
4:53 PM 45.0 °F 41.2 °F 24.1 °F 44% 30.19 in 10.0 mi Variable 6.9 mph - N/A   Clear
5:53 PM 45.0 °F 41.8 °F 24.1 °F 44% 30.19 in 10.0 mi Variable 5.8 mph - N/A   Partly Cloudy
6:53 PM 43.0 °F 37.7 °F 21.9 °F 43% 30.20 in 10.0 mi NW 9.2 mph - N/A   Clear
7:53 PM 39.9 °F 37.8 °F 21.0 °F 47% 30.21 in 10.0 mi NW 3.5 mph - N/A   Clear
8:53 PM 39.0 °F - 21.9 °F 50% 30.22 in 10.0 mi Calm Calm - N/A   Clear
9:53 PM 37.0 °F - 21.9 °F 54% 30.23 in 10.0 mi Calm Calm - N/A   Clear
10:53 PM 37.0 °F - 21.9 °F 54% 30.23 in 10.0 mi Calm Calm - N/A   Clear
11:53 PM 35.1 °F - 21.9 °F 59% 30.22 in 10.0 mi Calm Calm - N/A   Clear